Voltar ao catálogo

STARLINK-31812

AtivoComunicaçõesVLEO
NORAD 59800·PAYLOAD·🇺🇸 United States

Lançado May 18, 2024 de Cape Canaveral Space Force Station

Loading…

Próximas Passagens (próximas 24 horas)

TLE

AtualizadoSource: CelesTrak SupGP

Época: Sep 15, 2026, 01:53 UTC

1 59800C 24093U   26258.07895833 -.00044781  00000+0 -16220-2 0  2582
2 59800  42.9996 219.4156 0001345 266.3531 286.2439 15.27600145    16

Acompanhe STARLINK-31812 em tempo real com AllMySat

Download on the App Store